Meteo Giornale » Osservazioni meteo Stati Uniti (USA) » Chandler
ore: 13:30 - Osservazioni Meteo Chandler
Lat. 35° 43' N Lon. 96° 49' W Alt. 300 metri s.l.m.
37 °C
Nuvoloso
Temp. 24 Ore
22 °C
39 °C
Sud/Sud-Ovest
14.8 Km/h
Dew point 14 °C
Umidità 25 %
Visibilità 10 Km
Il sole sorge alle ore 06:58
Il sole tramonta alle ore 19:56
| Data e Ora | Cielo e Fenomeni | T °C | DP °C | Um. % | Pres. hPa | Vis. km | Vento km/h | |
|---|---|---|---|---|---|---|---|---|
| Oggi h: 13:30 | Nuvoloso | 37 | 14 | 25 | 1016 | 10 | S/SO 14.8 | |
| Oggi h: 13:10 | Sereno | 37 | 16 | 28 | 1016 | 10 | S/SO 11.1 | |
| Oggi h: 12:50 | Sereno | 37 | 17 | 30 | 1016 | 10 | S 16.7 | |
| Oggi h: 12:30 | Sereno | 37 | 17 | 30 | 1016 | 10 | S 20.3 | |
| Oggi h: 12:10 | Sereno | 36 | 17 | 32 | 1017 | 10 | S 22.2 | |
| Oggi h: 11:50 | Sereno | 36 | 18 | 34 | 1017 | 10 | S/SO 16.7 | |
| Oggi h: 11:35 | Sereno | 35 | 18 | 36 | 1017 | 10 | S 20.3 | |
| Oggi h: 11:15 | Sereno | 35 | 19 | 39 | 1017 | 10 | S 18.5 | |
| Oggi h: 10:50 | Sereno | 34 | 19 | 41 | 1017 | 10 | S 20.3 | |
| Oggi h: 10:30 | Sereno | 33 | 19 | 43 | 1017 | 10 | S 16.7 | |
| Oggi h: 10:10 | Sereno | 32 | 19 | 46 | 1017 | 10 | SO 18.5 | |
| Oggi h: 09:50 | Sereno | 31 | 19 | 48 | 1017 | 10 | SO 18.5 | |
| Oggi h: 09:30 | Sereno | 29 | 19 | 54 | 1017 | 10 | S 9.3 | |
| Oggi h: 09:10 | Sereno | 28 | 18 | 54 | 1017 | 10 | S 13 | |
| Oggi h: 08:50 | Sereno | 27 | 18 | 57 | 1017 | 11 | S/SE 13 | |
| Oggi h: 08:30 | Foschia | 26 | 18 | 61 | 1017 | 6 | S/SE 9.3 | |
| Oggi h: 08:10 | Sereno | 25 | 18 | 65 | 1017 | 10 | S/SE 7.4 | |
| Oggi h: 07:50 | Foschia | 24 | 18 | 69 | 1017 | 8 | S/SE 7.4 | |
| Oggi h: 07:30 | Sereno | 23 | 17 | 68 | 1016 | 10 | S/SE 7.4 | |
| Oggi h: 07:15 | Foschia | 23 | 17 | 68 | 1016 | 8 | SE 7.4 | |
| Oggi h: 06:55 | Foschia | 22 | 17 | 73 | 1016 | 8 | S/SE 7.4 | |
| Oggi h: 06:30 | Sereno | 23 | 17 | 68 | 1016 | 10 | SE 7.4 | |
| Oggi h: 06:10 | Sereno | 23 | 17 | 68 | 1015 | 10 | SE 9.3 | |
| Oggi h: 05:50 | Sereno | 23 | 17 | 68 | 1015 | 10 | SE 9.3 | |
| Oggi h: 05:30 | Sereno | 23 | 16 | 64 | 1015 | 10 | SE 7.4 | |
| Oggi h: 05:10 | Sereno | 24 | 16 | 60 | 1015 | 10 | S/SE 7.4 | |
| Oggi h: 04:50 | Sereno | 24 | 16 | 60 | 1015 | 10 | S/SE 9.3 | |
| Oggi h: 04:30 | Sereno | 25 | 16 | 57 | 1015 | 10 | S/SE 9.3 | |
| Oggi h: 04:10 | Sereno | 25 | 16 | 57 | 1015 | 10 | S/SE 11.1 | |
| Oggi h: 03:50 | Sereno | 25 | 16 | 57 | 1015 | 10 | S/SE 11.1 | |
| Oggi h: 03:30 | Sereno | 26 | 16 | 54 | 1014 | 10 | S 13 | |
| Oggi h: 03:10 | Sereno | 26 | 15 | 50 | 1014 | 10 | S/SE 13 | |
| Oggi h: 02:50 | Sereno | 25 | 16 | 57 | 1014 | 10 | S 11.1 | |
| Oggi h: 02:30 | Sereno | 26 | 16 | 54 | 1014 | 10 | S 11.1 | |
| Oggi h: 02:10 | Sereno | 25 | 16 | 57 | 1014 | 10 | S 11.1 | |
| Oggi h: 01:50 | Sereno | 25 | 16 | 57 | 1014 | 10 | S/SO 11.1 | |
| Oggi h: 01:30 | Sereno | 25 | 16 | 57 | 1014 | 10 | S/SO 9.3 | |
| Oggi h: 01:10 | Sereno | 26 | 16 | 54 | 1014 | 10 | S 9.3 | |
| Oggi h: 00:50 | Sereno | 26 | 16 | 54 | 1014 | 10 | S 9.3 | |
| Oggi h: 00:35 | Sereno | 27 | 16 | 50 | 1014 | 10 | S 7.4 | |
| Oggi h: 00:15 | Sereno | 27 | 16 | 50 | 1014 | 10 | S 9.3 | |
| Ieri h: 23:55 | Sereno | 28 | 16 | 48 | 1014 | 10 | S 9.3 | |
| Ieri h: 23:30 | Sereno | 28 | 16 | 48 | 1014 | 10 | S 11.1 | |
| Ieri h: 23:10 | Sereno | 28 | 16 | 48 | 1014 | 10 | S 11.1 | |
| Ieri h: 22:50 | Sereno | 29 | 16 | 45 | 1014 | 10 | S 14.8 | |
| Ieri h: 22:30 | Sereno | 30 | 16 | 42 | 1014 | 10 | S 13 | |
| Ieri h: 22:10 | Sereno | 30 | 16 | 42 | 1014 | 10 | S 13 | |
| Ieri h: 21:50 | Sereno | 30 | 16 | 42 | 1013 | 10 | S/SE 13 | |
| Ieri h: 21:30 | Sereno | 31 | 16 | 40 | 1013 | 10 | S/SE 13 | |
| Ieri h: 21:10 | Sereno | 31 | 16 | 40 | 1013 | 10 | S/SE 13 | |
| Ieri h: 20:50 | Sereno | 32 | 16 | 38 | 1012 | 10 | S/SE 11.1 | |
| Ieri h: 20:30 | Sereno | 32 | 16 | 38 | 1012 | 10 | S/SE 13 | |
| Ieri h: 20:15 | Sereno | 33 | 16 | 36 | 1012 | 10 | S/SE 11.1 | |
| Ieri h: 19:55 | Sereno | 33 | 16 | 36 | 1012 | 10 | S/SE 11.1 | |
| Ieri h: 19:30 | Sereno | 35 | 16 | 32 | 1011 | 10 | S/SE 13 | |
| Ieri h: 19:10 | Sereno | 36 | 16 | 30 | 1012 | 10 | S 13 | |
| Ieri h: 18:50 | Sereno | 37 | 16 | 28 | 1012 | 10 | S/SE 13 | |
| Ieri h: 18:30 | Sereno | 37 | 15 | 27 | 1012 | 10 | S/SO 16.7 | |
| Ieri h: 18:10 | Sereno | 38 | 15 | 25 | 1012 | 11 | S 14.8 | |
| Ieri h: 17:50 | Sereno | 38 | 15 | 25 | 1012 | 10 | S 18.5 | |
| Ieri h: 17:30 | Sereno | 38 | 15 | 25 | 1012 | 10 | S 16.7 | |
| Ieri h: 17:10 | Sereno | 38 | 15 | 25 | 1012 | 10 | S 18.5 | |
| Ieri h: 16:50 | Sereno | 39 | 15 | 24 | 1012 | 10 | S 14.8 | |
| Ieri h: 16:30 | Sereno | 38 | 15 | 25 | 1012 | 10 | S/SE 13 | |
| Ieri h: 16:10 | Sereno | 38 | 15 | 25 | 1012 | 10 | S 18.5 | |
| Ieri h: 15:55 | Sereno | 38 | 14 | 24 | 1012 | 10 | S/SO 18.5 | |
| Ieri h: 15:35 | Sereno | 38 | 15 | 25 | 1013 | 10 | S 20.3 | |
| Ieri h: 15:10 | Sereno | 39 | 15 | 24 | 1013 | 10 | S/SE 13 | |
| Ieri h: 14:50 | Sereno | 39 | 15 | 24 | 1013 | 10 | S/SO 27.8 | |
| Ieri h: 14:30 | Sereno | 38 | 15 | 25 | 1014 | 10 | S 22.2 | |
| Ieri h: 14:10 | Sereno | 38 | 15 | 25 | 1014 | 10 | S 24 | |
| Ieri h: 13:50 | Sereno | 38 | 16 | 27 | 1014 | 10 | S 22.2 | |



